Theta_e
298 304 306 305 306 306 302 304 305 307 306 310 321 322 323 325 326 325 325 327 337 340 342 343 345 348 349 350 348 343 345 349 350 352 352 353 352 352 351 350 347 348 348 343
301 307 307 305 307 308 307 310 311 308 309 320 324 330 332 333 332 329 331 339 341 342 343 344 344 345 347 348 350 351 349 348 351 353 349 348 346 347 344 343 343 341 342 344
297 303 304 299 303 306 310 314 313 307 314 323 323 331 332 332 335 336 337 339 340 340 342 342 343 345 346 346 347 349 348 345 345 343 345 345 345 345 343 342 342 342 340 339
297 298 292 302 314 317 315 316 316 318 319 322 324 324 329 332 333 334 337 338 335 335 337 339 340 344 344 345 345 344 343 343 343 344 341 344 344 342 342 342 342 341 341 341
297 294 300 307 312 314 310 309 320 318 319 322 324 325 324 331 336 334 335 333 334 337 337 337 338 341 341 341 341 342 341 342 343 344 343 343 340 339 339 338 339 338 338 337
298 295 295 305 316 322 319 305 320 321 320 321 324 318 320 329 333 333 334 333 336 336 334 334 335 339 339 339 339 338 339 340 341 341 340 339 339 339 339 338 337 338 335 333
299 297 301 310 317 320 302 305 319 322 322 322 320 322 326 331 330 333 333 333 335 334 333 335 336 338 336 335 335 338 341 342 342 341 340 340 339 339 338 336 333 334 333 332
301 296 298 316 318 310 310 318 321 321 323 323 325 330 333 331 330 330 331 332 333 332 333 336 337 337 334 335 338 341 342 341 340 340 344 340 337 336 335 335 331 330 330 331
303 303 308 320 314 319 319 320 322 321 325 327 326 324 329 331 331 331 330 330 331 330 333 335 336 336 333 336 341 341 339 338 338 335 336 338 335 334 329 331 328 328 329 328
308 311 315 317 319 320 321 321 323 323 327 328 325 324 325 329 329 326 329 330 330 333 333 333 335 336 335 339 341 340 338 336 337 335 331 336 333 332 327 328 330 325 328 327
308 312 319 319 321 322 326 329 329 330 330 330 330 330 330 331 328 324 328 330 333 333 334 334 337 337 340 342 342 340 337 336 336 338 336 332 331 326 331 328 323 325 325 325
309 314 315 316 322 325 327 327 330 330 332 334 332 329 329 331 330 327 329 332 333 334 335 337 338 337 340 340 341 341 338 338 337 337 336 336 331 331 312 311 308 305 307 315
314 317 317 321 325 327 325 327 328 329 332 330 333 328 327 325 330 327 331 332 333 333 334 338 339 340 341 342 341 340 338 337 336 329 330 331 334 332 331 321 309 306 304 305
319 320 318 322 321 327 327 328 325 327 326 326 330 329 328 327 331 331 332 333 335 336 337 338 338 339 343 345 343 341 339 326 335 334 331 333 333 333 333 331 325 325 311 309
322 322 321 322 324 326 327 327 324 324 324 326 329 330 329 331 331 332 334 336 336 335 335 335 335 336 342 343 342 340 339 337 336 335 334 329 330 330 333 330 327 326 325 313
318 319 320 322 325 326 328 327 322 323 327 330 330 330 330 331 331 334 333 334 334 332 334 336 336 339 337 338 339 336 334 330 331 334 330 327 329 331 330 328 327 329 329 327
313 312 314 316 319 325 327 330 327 326 329 331 329 329 331 332 333 331 331 332 333 331 330 333 336 337 336 336 335 335 336 335 331 333 329 327 328 328 328 324 324 326 331 330
317 317 317 320 317 319 324 329 326 325 325 326 329 332 332 332 333 330 330 330 329 330 331 332 334 338 337 337 336 337 336 332 327 327 328 328 330 326 326 325 325 325 324 325
316 317 317 319 318 318 319 319 322 324 325 329 331 331 333 333 332 330 329 330 329 329 332 335 333 335 337 338 337 337 333 325 322 319 329 325 327 324 323 325 326 327 326 327
321 320 321 322 323 323 323 324 324 323 328 332 332 328 328 328 329 329 331 330 332 334 334 334 335 337 337 336 334 329 326 324 321 318 324 326 325 324 323 319 324 326 326 328
322 323 323 323 322 323 323 324 328 324 328 331 330 329 329 328 329 331 330 329 333 332 333 331 335 335 336 336 331 328 326 323 320 319 319 320 325 322 326 325 325 327 329 330
323 323 323 323 323 323 325 326 328 328 328 327 329 330 329 329 329 332 334 334 336 324 333 335 335 331 334 333 333 329 327 326 323 320 320 322 324 326 324 324 323 322 323 324
323 323 323 325 325 324 325 326 327 328 328 329 329 329 330 333 334 332 331 336 336 328 337 337 332 327 325 333 333 330 329 327 323 320 323 326 326 325 324 324 322 322 322 322
321 323 323 324 326 328 326 326 329 329 330 331 331 332 332 332 331 334 335 326 326 328 333 334 329 323 321 334 333 331 329 327 323 321 323 315 325 324 323 322 322 323 322 319
324 324 324 325 325 325 325 324 325 326 325 323 321 323 324 326 329 328 331 331 322 326 332 326 322 320 327 333 334 332 330 328 324 321 324 322 322 321 322 323 323 322 321 320
317 322 321 323 324 322 320 322 323 321 319 316 316 317 320 321 321 322 324 322 328 325 330 330 330 327 329 331 330 330 329 327 322 320 321 324 323 322 322 320 319 320 319 318
317 312 315 315 316 318 318 320 320 317 315 316 315 316 317 318 319 321 319 326 328 330 331 331 330 325 327 328 327 327 327 326 319 324 323 323 322 322 322 321 321 320 320 319
Wind_Speed
4 5 4 6 5 8 7 8 8 9 9 7 8 9 8 7 6 4 6 6 4 5 5 5 4 6 6 5 2 5 6 6 5 5 4 5 3 4 1 4 4 5 4 11
4 4 1 5 7 9 5 5 3 7 4 3 2 6 5 7 9 6 6 6 7 5 5 5 5 5 6 6 7 6 6 5 3 5 6 5 3 6 6 5 7 3 4 5
4 3 5 4 4 4 2 4 5 7 8 8 4 9 9 7 9 9 7 6 7 6 5 2 3 4 6 6 6 8 8 7 6 6 8 6 5 6 5 4 4 5 5 4
4 3 2 7 3 3 8 5 3 5 5 5 7 4 7 6 9 10 10 8 6 6 4 4 3 5 5 6 6 7 6 6 5 6 6 6 6 5 3 2 3 3 4 3
5 1 5 3 6 6 6 3 7 7 4 7 5 4 4 4 6 10 11 8 7 6 5 4 5 5 7 6 6 7 6 6 5 6 6 6 5 4 2 4 4 4 3 5
3 4 6 9 4 3 2 2 8 11 10 9 6 7 6 7 8 8 10 10 8 7 6 7 4 5 7 6 6 6 5 5 5 6 6 6 4 3 2 2 3 3 6 6
3 3 7 6 3 3 5 7 5 11 10 8 8 6 7 8 6 9 10 8 7 7 7 7 6 6 7 6 6 4 4 4 5 5 4 3 2 2 3 4 5 5 5 5
2 3 5 5 5 6 5 4 6 8 10 8 5 7 11 9 9 9 9 6 8 7 7 6 6 7 7 6 4 4 4 5 4 2 2 2 4 3 3 3 5 4 4 3
9 10 5 21 3 3 5 6 5 7 6 9 8 7 9 8 10 7 8 7 5 8 7 5 5 6 7 6 5 5 4 4 2 2 2 3 3 2 3 3 4 3 2 2
4 1 5 16 4 2 2 5 6 7 10 9 8 9 6 5 8 9 9 8 6 8 8 7 6 6 5 7 6 5 4 2 1 0 2 2 2 2 2 1 2 1 1 1
2 3 7 4 2 8 9 11 11 9 7 10 11 7 6 6 8 7 7 7 9 9 7 8 7 5 6 6 6 5 3 2 1 1 3 4 2 1 1 2 1 3 3 3
7 8 5 6 7 9 13 13 13 13 9 9 9 10 7 6 6 7 7 6 8 7 7 7 7 6 6 6 6 5 3 1 2 2 3 4 2 2 2 1 2 3 2 2
5 4 4 9 12 8 10 11 11 10 9 10 9 9 7 5 4 8 7 8 11 10 8 7 7 6 5 5 5 4 3 2 1 1 2 2 1 3 3 1 2 2 1 1
6 10 7 4 9 9 4 6 2 6 8 7 5 5 6 6 5 8 10 9 8 8 7 7 6 6 7 6 5 4 4 4 2 2 2 2 3 4 3 2 1 2 6 6
7 3 10 10 7 9 4 5 5 4 3 8 7 9 8 8 9 9 8 8 7 7 7 7 6 5 5 6 6 5 3 2 2 1 1 1 2 3 2 3 3 2 1 2
3 7 10 11 12 11 9 7 7 7 3 4 5 7 7 5 7 8 9 9 11 7 7 7 7 6 6 6 6 4 3 3 3 2 2 2 2 2 3 3 3 3 4 4
6 6 7 7 10 13 14 13 13 12 7 5 7 5 8 8 7 8 8 7 7 8 8 8 7 5 6 5 6 3 3 2 1 3 3 2 1 2 3 2 2 3 5 4
10 7 9 15 12 12 12 12 9 8 9 9 7 9 9 11 13 9 9 7 6 4 5 6 5 6 6 6 5 3 2 2 1 1 2 3 3 3 3 3 4 5 4 1
7 11 9 10 9 8 8 11 12 13 8 9 10 11 12 11 10 9 7 7 7 6 6 6 8 7 7 7 6 4 4 3 2 2 2 3 3 3 3 3 4 4 4 3
8 5 9 9 8 8 9 5 9 9 9 12 10 8 8 7 8 8 7 8 9 8 6 8 7 7 7 7 8 4 4 3 3 2 1 1 2 3 4 6 5 4 4 3
13 13 13 12 9 6 7 8 8 8 8 10 12 11 12 8 7 7 7 4 8 6 7 8 7 5 5 5 5 5 5 4 3 4 4 4 4 3 4 4 1 2 2 2
14 14 13 11 10 8 6 6 7 7 8 8 6 7 8 7 7 6 7 11 7 11 5 5 5 8 6 9 5 5 5 5 4 3 5 4 5 4 5 4 3 3 3 3
12 14 12 11 11 9 7 7 7 8 8 8 8 8 8 7 8 8 7 8 4 7 5 5 8 11 12 6 5 5 5 6 5 5 4 4 5 5 5 5 4 3 3 3
9 11 8 8 10 10 9 3 7 7 8 8 7 5 6 5 3 1 1 3 5 5 6 5 6 9 9 6 5 6 5 6 5 5 4 4 4 4 4 4 4 4 3 4
13 10 11 12 10 7 10 7 9 8 10 9 9 7 7 4 5 2 3 3 5 3 3 6 9 8 5 6 7 6 6 6 6 5 5 5 5 5 5 5 5 5 4 4
5 8 7 9 10 7 6 6 9 6 9 8 5 5 5 5 5 5 4 6 5 5 3 3 3 4 5 6 7 7 7 6 6 6 6 6 6 5 5 5 5 5 5 5
10 9 7 7 5 6 6 9 10 6 5 7 7 3 5 5 5 6 6 5 5 6 6 6 5 4 4 4 4 4 4 4 5 5 6 6 6 6 6 6 6 5 5 5
Wind_Direction
179 139 150 210 244 238 174 188 164 225 175 222 170 169 181 164 120 131 136 146 128 130 108 75 44 22 11 33 66 185 180 179 189 186 190 223 255 298 33 50 2 7 32 137
114 26 201 211 225 274 214 165 68 108 118 166 72 91 115 142 140 139 130 117 106 93 80 71 56 42 16 22 46 71 93 102 137 121 82 70 48 60 48 357 16 39 80 125
258 349 279 300 298 283 45 101 140 145 205 146 132 151 163 145 129 131 134 137 140 133 125 119 63 47 62 62 38 60 67 53 69 95 97 70 56 79 70 52 55 44 56 96
194 5 217 247 309 98 116 78 4 63 95 122 149 134 130 143 141 140 144 145 146 153 156 150 121 96 92 81 79 85 77 78 75 77 88 97 93 79 69 47 42 37 48 44
121 116 300 310 258 181 173 224 169 124 134 115 111 72 36 136 159 146 158 152 163 160 151 134 119 124 102 85 81 79 74 76 81 92 90 96 89 81 58 51 42 41 19 29
134 142 197 234 261 306 209 317 191 145 154 154 152 157 206 147 142 142 152 151 156 157 139 134 154 115 97 95 92 88 91 95 90 87 88 85 82 67 45 56 46 57 62 57
156 156 283 236 200 266 117 237 128 152 144 149 185 190 146 131 129 157 154 158 149 144 152 155 149 121 107 109 104 121 103 88 81 89 103 104 75 47 46 46 64 76 67 43
121 74 263 165 75 204 201 341 159 147 159 150 133 133 129 128 137 145 137 158 155 145 157 155 154 127 129 125 154 130 103 85 62 93 67 65 57 28 39 94 86 82 76 51
164 204 232 178 63 132 162 154 178 114 127 142 133 133 144 134 133 140 169 171 165 150 139 147 164 144 137 164 137 125 118 114 93 16 8 28 30 35 53 62 96 98 106 70
108 274 210 192 83 117 131 110 125 121 138 147 144 147 135 119 130 156 173 161 153 138 143 162 191 163 150 152 145 134 128 126 152 345 330 9 59 47 76 30 81 90 109 93
283 37 75 18 206 143 119 120 127 143 155 158 134 144 136 127 130 153 169 156 153 160 154 180 177 169 165 158 144 151 159 186 225 271 280 284 78 21 282 245 193 181 212 177
209 209 168 199 182 148 146 168 161 159 170 162 142 149 135 132 122 145 168 160 145 157 159 178 165 175 177 170 158 152 177 210 250 258 258 269 229 238 125 256 54 48 57 159
201 181 252 159 163 169 167 181 192 173 174 155 159 149 135 145 144 141 136 182 162 164 168 154 167 180 188 176 150 167 179 197 283 310 251 302 237 224 268 222 215 235 211 288
161 134 52 156 185 194 191 200 142 84 113 121 109 104 120 150 124 147 165 180 156 145 150 157 163 186 192 174 164 188 191 198 188 262 277 299 208 199 209 200 231 267 218 223
163 163 165 167 137 169 136 130 162 235 125 125 145 156 163 159 161 173 146 148 141 134 143 146 162 200 174 164 174 188 174 210 219 281 321 314 231 255 231 170 183 216 271 239
100 132 129 147 169 158 154 164 182 211 214 173 167 168 173 146 132 140 138 139 139 170 171 171 184 190 161 148 161 167 181 209 224 222 261 282 269 241 192 198 190 224 236 234
119 113 120 140 163 171 186 187 192 196 191 189 215 142 133 129 130 132 148 164 165 160 171 166 195 169 169 167 168 191 163 187 277 179 208 216 263 279 231 198 216 247 251 231
174 162 180 167 167 170 189 195 186 174 196 203 145 139 143 157 165 163 172 163 108 112 177 202 194 181 178 171 176 187 171 191 204 205 233 221 219 206 229 239 231 236 245 210
165 158 163 161 148 144 155 171 185 187 165 151 143 174 172 168 167 168 149 146 150 163 233 204 196 176 187 191 178 187 180 190 244 312 300 250 207 209 225 255 256 238 235 191
149 170 136 132 137 144 139 161 158 168 162 161 163 134 152 166 156 147 152 176 186 200 178 189 178 194 201 201 179 174 182 203 230 256 253 132 216 254 251 247 251 234 230 212
152 151 145 144 147 141 133 146 144 161 169 158 155 167 176 162 153 140 136 172 232 212 198 180 183 204 194 194 180 182 182 190 212 237 246 252 232 229 256 251 258 208 202 189
148 142 142 140 137 135 146 132 122 130 140 132 138 151 139 151 149 172 193 198 214 189 181 199 200 203 196 183 191 193 196 198 209 224 241 220 205 202 237 245 212 189 196 209
156 147 141 139 139 140 133 123 116 126 136 151 151 153 168 172 172 166 212 226 192 194 196 213 212 203 201 189 195 196 197 207 216 226 218 202 209 207 216 219 206 201 219 244
141 141 125 117 121 115 113 104 103 90 94 82 81 111 133 131 80 47 91 131 185 181 221 231 225 214 181 207 198 198 201 205 210 224 238 217 210 206 198 202 212 224 223 217
135 127 127 126 119 117 118 114 96 85 86 81 78 75 80 63 115 122 89 82 86 165 230 262 253 239 207 218 209 205 209 206 201 200 208 206 206 208 214 211 211 206 223 245
16 120 123 124 130 129 123 117 115 112 110 95 61 61 65 63 74 75 66 52 58 59 39 343 284 229 217 221 218 216 213 209 191 199 201 208 210 216 218 212 214 214 223 236
11 356 88 81 70 110 114 123 121 115 107 110 105 79 90 84 74 75 66 55 47 41 30 15 6 331 270 248 232 237 235 226 205 200 199 204 207 212 212 219 214 218 226 225